SAS987 EKCH-RKSI

Flight info

Callsign SAS987
Flight time N/A
Altitude 37000
Route SIMEG Z493 BILRA DCT UVIVI DCT BAREX DCT KELEL DCT KEKED DCT BADOR DCT LUGEB DCT UDROS UM859 KARDE UN644 ROLIN N644 LAGAS M747 SUBUT/N0488F390 T916 LEYLA N161 GASBI/K0906F390 N161 SARIN/K0889S1190 A368 FKG W188 ADPET/K0891S1250 W188 LIKMI W270 DKO W69 HUR B339 LADIX W34 VAPGU W100 ORAVA W201 UNSEK A326 DONVO G597 AGAVO/N0476F410 Y644 REBIT REBIT1Y
Aircraft A359/H-SDE2E3GHIJ3J4J5LM1ORWXY/LB1D1

Departure

Time 2026-04-21 21:58
Airport Copenhagen Kastrup Airport (EKCH)

Arrival

Time N/A
Airport Incheon International Airport (RKSI)
Time Latitude Longitude Altitude Speed Heading
2026-04-21 21:01 55.62364 12.65047 30 ft 0 kts 276°
2026-04-21 21:44 55.62364 12.65051 30 ft 1 kts 276°
2026-04-21 21:44 55.62362 12.65074 29 ft 3 kts 276°
2026-04-21 21:45 55.62361 12.65091 28 ft 3 kts 276°
2026-04-21 21:45 55.62359 12.65127 27 ft 3 kts 276°
2026-04-21 21:45 55.62358 12.65161 29 ft 3 kts 261°
2026-04-21 21:45 55.62363 12.65190 26 ft 3 kts 219°
2026-04-21 21:46 55.62377 12.65202 29 ft 2 kts 179°
2026-04-21 21:46 55.62389 12.65202 27 ft 3 kts 178°
2026-04-21 21:46 55.62404 12.65201 27 ft 1 kts 178°
2026-04-21 21:46 55.62405 12.65201 27 ft 0 kts 178°
2026-04-21 21:52 55.62390 12.65202 27 ft 5 kts 178°
2026-04-21 21:52 55.62344 12.65203 28 ft 8 kts 181°
2026-04-21 21:53 55.62273 12.65197 30 ft 12 kts 182°
2026-04-21 21:53 55.62193 12.65157 30 ft 13 kts 208°
2026-04-21 21:53 55.62109 12.65064 30 ft 15 kts 212°
2026-04-21 21:53 55.62014 12.64953 30 ft 18 kts 213°
2026-04-21 21:54 55.61910 12.64832 30 ft 17 kts 213°
2026-04-21 21:54 55.61815 12.64723 30 ft 16 kts 213°
2026-04-21 21:54 55.61725 12.64620 30 ft 14 kts 213°
2026-04-21 21:54 55.61666 12.64517 30 ft 12 kts 245°
2026-04-21 21:55 55.61651 12.64363 30 ft 12 kts 266°
2026-04-21 21:55 55.61647 12.64213 31 ft 10 kts 266°
2026-04-21 21:55 55.61639 12.64103 33 ft 7 kts 250°
2026-04-21 21:55 55.61623 12.64069 33 ft 0 kts 223°
2026-04-21 21:57 55.61581 12.64001 32 ft 32 kts 221°
2026-04-21 21:57 55.61247 12.63484 33 ft 93 kts 221°
2026-04-21 21:57 55.60624 12.62520 33 ft 144 kts 221°
2026-04-21 21:57 55.59779 12.61218 295 ft 165 kts 222°
2026-04-21 21:58 55.58938 12.59914 972 ft 164 kts 225°
2026-04-21 21:58 55.58039 12.58456 1202 ft 186 kts 226°
2026-04-21 21:58 55.57015 12.56859 1401 ft 206 kts 222°
2026-04-21 21:58 55.55688 12.55614 1619 ft 228 kts 199°
2026-04-21 21:59 55.54140 12.54704 1961 ft 243 kts 200°
2026-04-21 21:59 55.52474 12.53673 2222 ft 263 kts 200°
2026-04-21 21:59 55.50723 12.52605 2755 ft 269 kts 200°
2026-04-21 21:59 55.48945 12.51517 3376 ft 272 kts 200°
2026-04-21 22:00 55.47152 12.50417 4020 ft 274 kts 199°
2026-04-21 22:00 55.45289 12.49702 4613 ft 276 kts 179°
2026-04-21 22:00 55.43452 12.50452 5208 ft 271 kts 148°
2026-04-21 22:00 55.42484 12.51787 5624 ft 266 kts 128°
2026-04-21 22:01 55.41594 12.54571 6251 ft 261 kts 107°
2026-04-21 22:01 55.41051 12.57630 6849 ft 263 kts 104°
2026-04-21 22:01 55.40553 12.60744 7403 ft 266 kts 103°
2026-04-21 22:01 55.40044 12.63887 7970 ft 268 kts 103°
2026-04-21 22:02 55.39520 12.67056 8577 ft 271 kts 104°
2026-04-21 22:02 55.38984 12.70244 9172 ft 273 kts 104°
2026-04-21 22:02 55.38442 12.73457 9774 ft 275 kts 103°
2026-04-21 22:02 55.37888 12.76695 10378 ft 278 kts 103°
2026-04-21 22:03 55.37320 12.80002 10715 ft 289 kts 104°
2026-04-21 22:03 55.36725 12.83469 10959 ft 303 kts 104°
2026-04-21 22:03 55.36100 12.87097 11205 ft 317 kts 104°
2026-04-21 22:03 55.35444 12.90888 11448 ft 330 kts 104°
2026-04-21 22:04 55.34763 12.94820 11653 ft 343 kts 104°
2026-04-21 22:04 55.34054 12.98896 11915 ft 353 kts 104°
2026-04-21 22:04 55.33330 13.03049 12343 ft 358 kts 104°
2026-04-21 22:04 55.32600 13.07241 12848 ft 360 kts 104°
2026-04-21 22:05 55.31859 13.11450 13351 ft 362 kts 104°
2026-04-21 22:05 55.31113 13.15689 13813 ft 365 kts 104°
2026-04-21 22:05 55.30361 13.19954 14293 ft 367 kts 104°
2026-04-21 22:05 55.29605 13.24235 14731 ft 369 kts 104°
2026-04-21 22:06 55.28842 13.28543 15179 ft 371 kts 104°
2026-04-21 22:06 55.28075 13.32869 15627 ft 373 kts 104°
2026-04-21 22:06 55.27301 13.37223 16093 ft 375 kts 104°
2026-04-21 22:06 55.26523 13.41596 16537 ft 377 kts 104°
2026-04-21 22:07 55.25730 13.45988 16978 ft 379 kts 105°
2026-04-21 22:07 55.24665 13.50250 17393 ft 386 kts 116°
2026-04-21 22:07 55.23142 13.54168 17847 ft 392 kts 123°
2026-04-21 22:07 55.21419 13.57901 18275 ft 396 kts 126°
2026-04-21 22:08 55.19596 13.61535 18680 ft 399 kts 127°
2026-04-21 22:08 55.17731 13.65142 19050 ft 401 kts 127°
2026-04-21 22:08 55.15876 13.68718 19407 ft 403 kts 127°
2026-04-21 22:08 55.14000 13.72369 19773 ft 405 kts 127°
2026-04-21 22:09 55.12126 13.76057 20145 ft 406 kts 126°
2026-04-21 22:09 55.10254 13.79770 20513 ft 408 kts 126°
2026-04-21 22:09 55.08381 13.83505 20879 ft 411 kts 126°
2026-04-21 22:09 55.06494 13.87274 21194 ft 413 kts 126°
2026-04-21 22:10 55.04596 13.91062 21566 ft 415 kts 126°
2026-04-21 22:10 55.02690 13.94859 21929 ft 417 kts 126°
2026-04-21 22:10 55.00773 13.98670 22287 ft 419 kts 125°
2026-04-21 22:10 54.98847 14.02492 22652 ft 421 kts 125°
2026-04-21 22:11 54.96909 14.06331 23009 ft 423 kts 125°
2026-04-21 22:11 54.94966 14.10168 23471 ft 422 kts 125°
2026-04-21 22:11 54.93005 14.13993 23848 ft 426 kts 127°
2026-04-21 22:11 54.90793 14.17488 24128 ft 434 kts 135°
2026-04-21 22:12 54.88393 14.20718 24405 ft 438 kts 137°
2026-04-21 22:12 54.85914 14.23840 24687 ft 442 kts 139°
2026-04-21 22:12 54.83388 14.26904 24965 ft 445 kts 139°
2026-04-21 22:12 54.80828 14.29963 25222 ft 448 kts 139°
2026-04-21 22:13 54.78255 14.33024 25538 ft 450 kts 139°
2026-04-21 22:13 54.75673 14.36111 25828 ft 451 kts 139°
2026-04-21 22:13 54.73089 14.39225 26115 ft 453 kts 139°
2026-04-21 22:13 54.70503 14.42357 26436 ft 455 kts 139°
2026-04-21 22:14 54.67941 14.45464 26732 ft 457 kts 139°
2026-04-21 22:14 54.65332 14.48627 27044 ft 459 kts 139°
2026-04-21 22:14 54.62719 14.51790 27457 ft 459 kts 139°
2026-04-21 22:14 54.60103 14.54950 27763 ft 461 kts 139°
2026-04-21 22:15 54.57467 14.58130 28040 ft 463 kts 139°
2026-04-21 22:15 54.54820 14.61317 28329 ft 465 kts 139°
2026-04-21 22:15 54.52160 14.64514 28653 ft 468 kts 139°
2026-04-21 22:15 54.49485 14.67723 28935 ft 470 kts 139°
2026-04-21 22:16 54.46798 14.70940 29232 ft 472 kts 139°
2026-04-21 22:16 54.44094 14.74171 29524 ft 474 kts 139°
2026-04-21 22:16 54.41381 14.77408 29811 ft 476 kts 139°
2026-04-21 22:16 54.38659 14.80652 30073 ft 478 kts 139°
2026-04-21 22:17 54.35926 14.83903 30343 ft 479 kts 139°
2026-04-21 22:17 54.33179 14.87165 30612 ft 480 kts 140°
2026-04-21 22:17 54.30431 14.90421 30878 ft 481 kts 140°
2026-04-21 22:17 54.27672 14.93686 31076 ft 483 kts 140°
2026-04-21 22:18 54.24903 14.96959 31282 ft 485 kts 140°
2026-04-21 22:18 54.22121 15.00240 31494 ft 486 kts 140°
2026-04-21 22:18 54.19334 15.03523 31741 ft 487 kts 140°
2026-04-21 22:18 54.16540 15.06807 32011 ft 487 kts 140°
2026-04-21 22:19 54.13750 15.10079 32307 ft 486 kts 141°
2026-04-21 22:19 54.10961 15.13345 32598 ft 486 kts 141°
2026-04-21 22:19 54.08178 15.16600 32889 ft 486 kts 141°
2026-04-21 22:19 54.05394 15.19851 33158 ft 485 kts 141°
2026-04-21 22:20 54.02610 15.23096 33492 ft 484 kts 141°
2026-04-21 22:20 53.99875 15.26279 33793 ft 483 kts 141°
2026-04-21 22:20 53.97102 15.29502 34071 ft 483 kts 141°
2026-04-21 22:20 53.94331 15.32719 34313 ft 483 kts 141°
2026-04-21 22:21 53.91556 15.35933 34510 ft 483 kts 141°
2026-04-21 22:21 53.88783 15.39141 34708 ft 483 kts 141°
2026-04-21 22:21 53.86007 15.42348 34880 ft 483 kts 141°
2026-04-21 22:21 53.83227 15.45553 35055 ft 484 kts 141°
2026-04-21 22:22 53.80446 15.48754 35223 ft 484 kts 141°
2026-04-21 22:22 53.77661 15.51954 35393 ft 484 kts 141°
2026-04-21 22:22 53.74869 15.55156 35551 ft 485 kts 141°
2026-04-21 22:22 53.72081 15.58350 35735 ft 484 kts 142°
2026-04-21 22:23 53.69295 15.61536 35917 ft 484 kts 142°
2026-04-21 22:23 53.66502 15.64723 36060 ft 485 kts 142°
2026-04-21 22:23 53.63706 15.67911 36188 ft 485 kts 142°
2026-04-21 22:23 53.60906 15.71096 36331 ft 486 kts 142°
2026-04-21 22:24 53.58107 15.74277 36484 ft 486 kts 142°
2026-04-21 22:24 53.55299 15.77462 36613 ft 487 kts 142°
2026-04-21 22:24 53.52488 15.80644 36743 ft 487 kts 142°
2026-04-21 22:24 53.49675 15.83823 36864 ft 488 kts 142°
2026-04-21 22:25 53.46860 15.87000 36982 ft 488 kts 142°
2026-04-21 22:25 53.44041 15.90177 37104 ft 488 kts 142°
2026-04-21 22:25 53.41230 15.93339 37214 ft 489 kts 143°
2026-04-21 22:26 53.35556 15.99707 37309 ft 492 kts 143°
2026-04-21 22:26 53.29870 16.06069 37317 ft 496 kts 143°
2026-04-21 22:27 53.24091 16.12510 37308 ft 496 kts 143°
2026-04-21 22:27 53.18404 16.18828 37299 ft 496 kts 143°
2026-04-21 22:28 53.12637 16.25215 37312 ft 496 kts 143°
2026-04-21 22:28 53.06923 16.31523 37297 ft 497 kts 143°
2026-04-21 22:29 53.01121 16.37908 37293 ft 497 kts 143°
2026-04-21 22:29 52.95417 16.44164 37297 ft 497 kts 143°
2026-04-21 22:30 52.89576 16.50550 37290 ft 497 kts 143°
2026-04-21 22:30 52.83800 16.56844 37285 ft 498 kts 143°
2026-04-21 22:31 52.78008 16.63136 37287 ft 498 kts 143°
2026-04-21 22:31 52.72213 16.69410 37281 ft 498 kts 143°
2026-04-21 22:32 52.66412 16.75670 37273 ft 498 kts 143°
2026-04-21 22:32 52.60603 16.81919 37269 ft 499 kts 144°
2026-04-21 22:33 52.54790 16.88153 37276 ft 499 kts 144°
2026-04-21 22:33 52.48968 16.94374 37275 ft 500 kts 144°
2026-04-21 22:34 52.43143 17.00581 37270 ft 500 kts 144°
2026-04-21 22:34 52.37301 17.06785 37271 ft 500 kts 144°
2026-04-21 22:35 52.31457 17.12972 37267 ft 501 kts 144°
2026-04-21 22:35 52.25606 17.19146 37261 ft 501 kts 144°
2026-04-21 22:36 52.16821 17.28380 37259 ft 501 kts 144°
2026-04-21 22:36 52.10963 17.34512 37258 ft 501 kts 144°
2026-04-21 22:37 52.05099 17.40631 37253 ft 501 kts 144°
2026-04-21 22:37 51.99268 17.46698 37253 ft 501 kts 144°
2026-04-21 22:38 51.93393 17.52791 37252 ft 502 kts 144°
2026-04-21 22:38 51.87504 17.58878 37249 ft 502 kts 144°
2026-04-21 22:39 51.81613 17.64949 37243 ft 502 kts 144°
2026-04-21 22:39 51.75719 17.71002 37244 ft 502 kts 145°
2026-04-21 22:40 51.69820 17.77044 37236 ft 503 kts 145°
2026-04-21 22:40 51.63913 17.83075 37242 ft 503 kts 145°
2026-04-21 22:41 51.58079 17.89287 37235 ft 502 kts 141°
2026-04-21 22:41 51.52529 17.96077 37229 ft 501 kts 140°
2026-04-21 22:42 51.47035 18.02968 37227 ft 501 kts 139°
2026-04-21 22:42 51.41539 18.09863 37222 ft 502 kts 140°
2026-04-21 22:43 51.36025 18.16736 37216 ft 502 kts 140°
2026-04-21 22:43 51.30503 18.23585 37214 ft 503 kts 140°
2026-04-21 22:44 51.24966 18.30427 37211 ft 503 kts 140°
2026-04-21 22:44 51.19466 18.37204 37215 ft 503 kts 140°
2026-04-21 22:45 51.13920 18.44015 37202 ft 503 kts 140°